User: anonymous   Login
Location: İstanbul
(41.0082°N, 28.9784°E)
Time: 02:45:08
(UTC+03:00)
Language:

RS-44 - Orbit

View from above orbital plane
View from above orbital plane
View from above satellite
View from above satellite

Ground track
Ground track

The orbit data is extracted from the following two-line orbital elements,

1 44909U 19096E   24114.54138218  .00000049  00000-0  15021-3 0  9990
2 44909  82.5187 141.0887 0217554 178.6689 181.5039 12.79728898201985
Epoch (UTC): 23 April 2024 12:59:35
Eccentricity: 0.0217554
inclination: 82.5187°
perigee height: 1174 km
apogee height: 1510 km
right ascension of ascending node: 141.0887°
argument of perigee: 178.6689°
revolutions per day: 12.79728898
mean anomaly at epoch: 181.5039°
orbit number at epoch: 20198

The dashed part of the orbit path shows where the satellite is in the earth's shadow,  

DLR